Regional Weather Roundup
Issued by NWS Austin/San Antonio, TX

Home | Current Version | Previous Version | Text Only | Print | Product List | Glossary On
Versions: 1 2 3 4 5 6 7 8 9 10 11 12 13 14 15 16 17 18 19 20 21 22 23 24 25 26 27 28 29 30 31 32 33 34 35 36 37 38 39 40 41 42 43 44 45 46 47 48 49 50
000
ASUS44 KEWX 200501
RWREWX
SOUTH TEXAS REGIONAL WEATHER ROUNDUP
NATIONAL WEATHER SERVICE AUSTIN/SAN ANTONIO TX
1200 AM CDT FRI OCT 20 2017

NOTE: "FAIR" INDICATED FEW OR NO CLOUDS BELOW 12,000 FEET WITH NO
SIGNIFICANT WEATHER AND/OR OBSTRUCTIONS TO VISIBILITY.

* - THESE STATIONS ARE NOT NWS OR FAA STATIONS...AND ARE NOT SUBJECT
    TO NWS AND FAA QUALITY CONTROL.

TXZ171-172-183>190-200600-
TEXAS HILL COUNTRY AND EDWARDS PLATEAU

CITY           SKY/WX    TMP DP  RH WIND       PRES   REMARKS
JUNCTION       FAIR      65  57  75 E3        30.09R
*LLANO         FAIR      64  59  82 E6        30.11F
BURNET         FAIR      69  58  67 SE5       30.11S
*HORSESHOE BAY FAIR      66  60  83 CALM      30.09S
*KERRVILLE     FAIR      64  60  88 SE3       30.10S
*FREDERICKSBRG FAIR      66  60  80 SE6       30.10S
*ROCKSPRINGS   NOT AVBL
*BOERNE STAGE  FAIR      64  61  88 S3        30.11S
*CASTROVILLE   FAIR      69  59  71 E3        30.09S
HONDO          FAIR      70  63  78 SE7       30.08S
*UVALDE        FAIR      68  63  82 SE7       30.08S
DEL RIO        FAIR      71  63  75 SE12      30.02S
LAUGHLIN AFB   MOCLDY    70  62  77 SE9       30.03S
CARRIZO SPRGS  FAIR      70  63  78 SE3       30.05R
*EAGLE PASS    NOT AVBL
$$

TXZ173-191>194-202-209-217>225-228-200600-
CENTRAL AND SOUTH CENTRAL TEXAS

CITY           SKY/WX    TMP DP  RH WIND       PRES   REMARKS
GEORGETOWN     FAIR      68  60  75 SE5       30.11
AUSTIN/BERGSTM MOCLDY    68  61  78 SE6       30.08S
AUSTIN/MABRY   FAIR      70  60  70 SE6       30.10S
*AUSTIN/EXEC   FAIR      66  61  82 CALM      30.10S
*LAGO VISTA    FAIR      69  60  73 SE7       30.10S
SAN MARCOS     FAIR      67  62  84 SE7       30.09S
NEW BRAUNFELS  FAIR      66  59  78 SE5       30.07S
RANDOLPH AFB   FAIR      65  60  82 SE6       30.08S
PT SAN ANTONIO FAIR      71  62  75 E10       30.06S
SAN ANTONIO    MOCLDY    68  61  78 SE6       30.09R
STINSON FIELD  FAIR      70  63  78 E8        30.06S
*LA GRANGE     CLOUDY    72  63  72 E3        30.07F
*GIDDINGS      MOCLDY    70  61  72 SE5       30.10S
*GONZALES      CLOUDY    71  69  95 E3        30.07F
$$

TXZ163>164-176>182-195>201-210>213-226-227-235-200600-
SOUTHEAST TEXAS

CITY           SKY/WX    TMP DP  RH WIND       PRES   REMARKS
COLLEGE STN    FAIR      71  61  70 E3        30.10F
*BRYAN         FAIR      68  60  75 E3        30.12S
*CALDWELL      FAIR      69  62  76 SE5       30.10F
*CROCKETT        N/A     66  57  72 E3        30.15F
*BRENHAM       LGT RAIN  69  65  84 CALM      30.11R
HUNTSVILLE     FAIR      70  57  63 E5        30.11S
CONROE         FAIR      69  60  73 E6        30.12R
HOUSTON BUSH   MOCLDY    68  63  84 E8        30.11R
HOUSTON HOBBY  MOCLDY    75  64  68 NE6       30.10F
*HOUSTON SW AP LGT RAIN  70  67  89 CALM      30.10F
PEARLAND       MOCLDY    75  64  68 NE6       30.11F
HOUSTON HOOKS  MOCLDY    72  61  68 CALM      30.11R
ELLINGTON FLD  MOCLDY    73  64  73 NE6       30.11S
SUGAR LAND     MOCLDY    75  65  70 E3        30.10F THUNDER
*HOUSTON EXEC  CLOUDY    72  64  78 E6        30.11F
*CLEVELAND MUN FAIR      63  60  91 CALM      30.14R
*WHARTON       LGT RAIN  67  62  81 NE5       30.10F
*COLUMBUS      CLOUDY    70  65  83 SW8       30.11R
*EAGLE LAKE    LGT RAIN  71  68  92 SE10      30.09R
$$

TXZ214>216-236>238-200600-
THE UPPER TEXAS COAST

CITY           SKY/WX    TMP DP  RH WIND       PRES   REMARKS
*ORANGE        FAIR      70  64  80 E7        30.13S
PORT ARTHUR    RAIN      70  64  81 E6        30.10S
GALVESTON      MOCLDY    80  74  81 E14G23    30.08F
ANGLETON       LGT RAIN  72  68  87 N8        30.08F
*BAY CITY      HVY RAIN  72  69  89 NE8       30.07F
PALACIOS       LGT RAIN  69  68  96 NE12      30.06F
$$

TXZ229>234-239>247-200600-
TEXAS COASTAL BEND AND RIO GRANDE PLAINS

CITY           SKY/WX    TMP DP  RH WIND       PRES   REMARKS
VICTORIA       MOCLDY    68  65  90 E5        30.08S
*BEEVILLE      FAIR      71  61  70 E7        30.04F
ROCKPORT       CLOUDY    75  71  87 NE9       30.04R
*PORT ARANSAS  NOT AVBL
*PORT LAVACA   DRIZZLE   71  68  92 E16       30.06F
*INGLESIDE     NOT AVBL
CORPUS CHRISTI CLOUDY    74  70  87 NE6       30.03F
CORPUS NAS     RAIN      77  74  90 E9        30.03S FOG
*ROBSTOWN      CLOUDY    73  69  85 NE7       30.04F
ALICE          CLOUDY    74  68  81 E9        30.03S
KINGSVILLE NAS NOT AVBL
COTULLA        FAIR      71  64  78 SE8       30.06R
*FAITH RANCH   CLOUDY    73  64  73 SE7       30.05S
LAREDO         FAIR      74  66  76 E13       30.03F
$$

TXZ248>255-200600-
DEEP SOUTH TEXAS

CITY           SKY/WX    TMP DP  RH WIND       PRES   REMARKS
BROWNSVILLE    FAIR      71  70  96 CALM      30.03R
PORT ISABEL    FAIR      71  69  93 CALM      30.02R
*SOUTH PADRE   NOT AVBL
HARLINGEN      FAIR      70  70 100 CALM      30.02S
*HEBBRONVILLE  MOCLDY    69  64  85 CALM      30.06S
MCALLEN        FAIR      77  70  79 E6        30.03S
*WESLACO       FAIR      72  69  91 CALM      30.02S
FALFURRIAS     CLOUDY    74  72  91 NE7       30.02F
EDINBURG       MOCLDY    74  69  86 CALM      30.03F
*ZAPATA        FAIR      73  66  78 E6        30.03S
$$

TXZ213>215-236>238-242>244-246-247-251-254-255-200600-
CMAN STATIONS

STATION/POSITION TIME  TEMP    WIND        PRES    WAVE
                       AIR SEA DIR/SP/G            HT/PER
                 (UTC) (F)     (DEG/KT/KT) (MB)    (FT/S)
SABINE PASS      0424   73 77   60/  8/ 10 1021.1
SEA RIM ST PARK  0400   72      70/  6/  7 1020.0
NORTH JETTY/GLS  0424      77  100/ 16/ 18 1018.5
EAGLE POINT      0424   74 74   70/  9/ 11 1019.3
MORGANS POINT    0424   73 77   40/  5/  7 1019.5
PORT O`CONNOR    0424   73 76   50/ 17/ 20 1017.0
MALAQUITE BEACH  0424   79 79   70/ 15/ 17 1016.2
BAFFIN BAY       0424   77 77  100/  8/ 10 1016.8
PORT ISABEL      0424   77 78  150/  3/  4 1016.3
$$




USA.gov is the U.S. government's official web portal to all federal, state and local government web resources and services.